Weather History for Lanai City, HI

Change the Weather History Date:

Wednesday, January 30, 2013

  Actual Average Record
Temperature  
Mean Temperature 68 °F -  
Max Temperature 77 °F 76 °F 81 °F (2014)
Min Temperature 60 °F 60 °F 51 °F (1955)
Cooling Degree Days 4    
Growing Degree Days 18 (Base 50)    
Moisture  
Dew Point 64 °F    
Average Humidity 84    
Maximum Humidity 100    
Minimum Humidity 69    
Precipitation  
Precipitation 0.00 in - - ()
Sea Level Pressure  
Sea Level Pressure 30.06 in    
Wind  
Wind Speed 6 mph (NNW)    
Max Wind Speed 16 mph    
Max Gust Speed 21 mph    
Visibility 9 miles    
Events Fog , Rain    
Averages and records for this station are not official NWS values.
T = Trace of Precipitation, MM = Missing Value Source: NWS Daily Summary

Daily Weather History Graph

Daily Weather History Graph

Search for Another Location

Airport:

Trip Planner

Search our weather history database for the weather conditions in past years. The results will help you decide how hot, cold, wet, or windy it might be!

Date:

Astronomy

Jan. 30, 2013 Rise Set
Actual Time 7:04 AM HST 6:17 PM HST
Civil Twilight 6:41 AM HST 6:40 PM HST
Nautical Twilight 6:15 AM HST 7:07 PM HST
Astronomical Twilight 5:48 AM HST 7:33 PM HST
Moon 9:47 PM HST (1/30) 9:14 AM HST (1/30)
Length of Visible Light 11h 59m
Length of Day
11h 12m
Waning Gibbous, 86% of the Moon is Illuminated
Jan 30
Waning Gibbous
Feb 3
Last Quarter
Feb 9
New
Feb 17
First Quarter
Feb 25
Full

Hourly Weather History & Observations

Time (HST) Temp. Dew Point Humidity Pressure Visibility Wind Dir Wind Speed Gust Speed Precip Events Conditions
12:56 AM 64.9 °F 63.9 °F 96% 30.02 in 10.0 mi NW 3.5 mph - N/A   Overcast
1:56 AM 64.9 °F 61.0 °F 87% 30.01 in 10.0 mi North 6.9 mph - N/A   Scattered Clouds
2:56 AM 63.0 °F 59.9 °F 90% 30.01 in 10.0 mi ENE 6.9 mph - N/A   Partly Cloudy
3:40 AM 64.4 °F 60.8 °F 88% 30.05 in 10.0 mi East 4.6 mph - N/A   Partly Cloudy
3:56 AM 63.0 °F 59.9 °F 90% 30.01 in 10.0 mi East 6.9 mph - N/A   Partly Cloudy
4:56 AM 63.0 °F 61.0 °F 93% 30.02 in 10.0 mi East 5.8 mph - N/A   Partly Cloudy
5:56 AM 64.9 °F 63.9 °F 96% 30.02 in 10.0 mi East 3.5 mph - N/A   Clear
6:25 AM 62.6 °F 62.6 °F 100% 30.07 in 1.2 mi East 5.8 mph - N/A   Clear
6:28 AM 62.6 °F 60.8 °F 94% 30.08 in 0.5 mi East 5.8 mph - N/A Fog Fog
6:38 AM 60.8 °F 60.8 °F 100% 30.08 in 1.0 mi ENE 5.8 mph - N/A   Clear
6:40 AM 62.6 °F 60.8 °F 94% 30.08 in 3.0 mi ENE 4.6 mph - N/A   Clear
6:56 AM 61.9 °F 61.9 °F 100% 30.04 in 10.0 mi East 4.6 mph - N/A   Clear
7:56 AM 63.0 °F 61.9 °F 96% 30.06 in 10.0 mi ENE 4.6 mph - N/A   Clear
8:56 AM 68.0 °F 65.8 °F 93% 30.07 in 10.0 mi Variable 4.6 mph - N/A   Partly Cloudy
9:56 AM 72.0 °F 63.9 °F 76% 30.08 in 10.0 mi ESE 5.8 mph - N/A   Scattered Clouds
10:32 AM 73.4 °F 64.4 °F 73% 30.13 in 10.0 mi Variable 3.5 mph - N/A   Mostly Cloudy
10:56 AM 73.4 °F 66.2 °F 78% 30.13 in 10.0 mi Variable 3.5 mph - N/A   Overcast
11:10 AM 73.4 °F 66.2 °F 78% 30.13 in 10.0 mi West 5.8 mph - N/A   Overcast
11:32 AM 71.6 °F 66.2 °F 83% 30.12 in 10.0 mi NW 4.6 mph - N/A   Overcast
11:38 AM 71.6 °F 66.2 °F 83% 30.12 in 10.0 mi NW 4.6 mph - N/A   Overcast
11:47 AM 71.6 °F 66.2 °F 83% 30.12 in 10.0 mi WNW 5.8 mph - N/A   Overcast
11:56 AM 70.9 °F 65.8 °F 84% 30.07 in 10.0 mi NW 4.6 mph - N/A   Overcast
12:13 PM 71.6 °F 66.2 °F 83% 30.11 in 10.0 mi NW 5.8 mph - 0.00 in Rain Light Rain
12:56 PM 70.9 °F 65.8 °F 84% 30.05 in 10.0 mi WNW 5.8 mph - 0.00 in   Mostly Cloudy
1:05 PM 71.6 °F 66.2 °F 83% 30.09 in 10.0 mi West 6.9 mph - 0.00 in Rain Light Rain
1:12 PM 71.6 °F 66.2 °F 83% 30.09 in 10.0 mi West 6.9 mph - 0.00 in   Mostly Cloudy
1:19 PM 71.6 °F 64.4 °F 78% 30.08 in 10.0 mi West 5.8 mph - 0.00 in   Mostly Cloudy
1:28 PM 71.6 °F 64.4 °F 78% 30.08 in 10.0 mi WNW 6.9 mph - 0.00 in   Mostly Cloudy
1:43 PM 71.6 °F 64.4 °F 78% 30.07 in 10.0 mi WNW 5.8 mph - 0.00 in Rain Light Rain
1:56 PM 72.0 °F 64.9 °F 78% 30.02 in 10.0 mi Variable 4.6 mph - 0.00 in   Overcast
2:08 PM 71.6 °F 64.4 °F 78% 30.07 in 10.0 mi West 5.8 mph - N/A   Overcast
2:48 PM 71.6 °F 66.2 °F 83% 30.06 in 10.0 mi West 6.9 mph - N/A   Mostly Cloudy
2:56 PM 72.9 °F 64.9 °F 76% 30.02 in 10.0 mi WNW 4.6 mph - N/A   Mostly Cloudy
3:21 PM 73.4 °F 66.2 °F 78% 30.06 in 10.0 mi Variable 5.8 mph - N/A   Overcast
3:31 PM 73.4 °F 66.2 °F 78% 30.06 in 10.0 mi Variable 4.6 mph - N/A   Overcast
3:56 PM 75.9 °F 65.8 °F 71% 30.01 in 10.0 mi West 8.1 mph - N/A   Overcast
4:15 PM 75.2 °F 66.2 °F 73% 30.06 in 10.0 mi Variable 6.9 mph - N/A   Mostly Cloudy
4:31 PM 75.2 °F 66.2 °F 73% 30.07 in 10.0 mi West 6.9 mph - N/A   Mostly Cloudy
4:56 PM 77.0 °F 66.2 °F 69% 30.07 in 10.0 mi NW 5.8 mph - N/A   Overcast
5:11 PM 75.2 °F 66.2 °F 73% 30.07 in 10.0 mi WNW 5.8 mph - N/A   Overcast
5:37 PM 75.2 °F 64.4 °F 69% 30.07 in 10.0 mi WNW 5.8 mph - N/A   Overcast
5:56 PM 73.9 °F 64.9 °F 73% 30.02 in 10.0 mi West 3.5 mph - N/A   Mostly Cloudy
6:56 PM 70.0 °F 65.8 °F 87% 30.04 in 10.0 mi SE 4.6 mph - N/A   Overcast
7:35 PM 68.0 °F 66.2 °F 94% 30.09 in 10.0 mi Calm Calm - N/A   Scattered Clouds
7:56 PM 66.9 °F 64.9 °F 93% 30.06 in - Calm Calm - N/A   Mostly Cloudy
8:56 PM 66.9 °F 63.0 °F 87% 30.07 in 10.0 mi ENE 12.7 mph - N/A   Clear
9:56 PM 66.9 °F 63.0 °F 87% 30.06 in 10.0 mi NE 12.7 mph - N/A   Clear
10:56 PM 66.9 °F 63.0 °F 87% 30.06 in 10.0 mi NE 15.0 mph - N/A   Clear
11:56 PM 66.9 °F 61.9 °F 84% 30.05 in 10.0 mi NE 16.1 mph 20.7 mph N/A   Clear